[[{"header":{"parameterUnit":"m.s-1","parameterCategory":1,"la1":30.2991,"la2":30.254,"lo1":-89.0895,"lo2":-89.0444,"dy":0.0017,"dx":0.0017,"nx":28,"ny":28,"refTime":"2025-01-01T09:00:00:Z","depth":0,"parameterNumber":2,"parameterNumberName":"U-component_of_WINDS"},"data":[0,0,0,0,0,0,0,0,0,0,0,0,0,0,0,0,0,0,0,0,0,0,0,0,0,0,0,0,0,0,0,0,0,0,0,0,0,0,0,0,0,0,0,0,0,0,0,0,0,0,0,0,0,0,0,0,0,0,1.7371,1.7371,0,1.7281,1.728,1.7279,1.7244,1.7244,1.7244,1.7245,1.7147,1.7144,1.7141,0,0,0,0,0,0,0,0,0,0,0,0,0,1.7507,1.7505,1.7372,1.737,1.7369,1.7282,1.728,1.7279,1.7244,1.7244,1.7245,1.7245,1.7148,1.7145,1.7141,0,0,0,0,0,0,0,0,0,0,0,0,0,1.7436,1.7504,1.7372,1.7341,1.7338,1.7282,1.728,1.7279,1.7244,1.7244,1.7245,1.7245,1.7149,1.7145,1.7141,1.7107,0,0,1.7128,1.7126,0,0,0,0,0,0,0,0,1.744,1.7431,1.7347,1.7343,1.7339,1.7274,1.7292,1.7221,1.7244,1.7279,1.7245,1.7245,1.7189,1.7181,1.7163,1.7102,1.7098,1.7127,1.7125,1.7123,1.7122,0,0,0,0,0,0,0,1.7445,1.7435,1.7336,1.7346,1.7341,1.733,1.7321,1.7279,1.7233,1.7276,1.7273,1.7264,1.7187,1.7168,1.7161,1.7097,1.7128,1.7124,1.7121,1.7119,1.7002,1.7002,0,0,0,0,0,0,1.7456,1.7439,1.7339,1.7333,1.7392,1.7328,1.7317,1.7295,1.7233,1.7224,1.7263,1.7262,1.7175,1.7166,1.7157,1.7113,1.7123,1.7119,1.7117,1.7003,1.7002,1.7002,0,0,0,0,0,0,1.7459,1.7447,1.7342,1.7385,1.7371,1.7325,1.73,1.7293,1.7274,1.7224,1.7215,1.7253,1.7175,1.7163,1.712,1.7109,1.7117,1.7113,1.7003,1.7003,1.7002,1.7024,0,0,0,0,0,0,1.7463,1.7449,1.7437,1.7385,1.7369,1.7308,1.73,1.7291,1.7267,1.7265,1.7211,1.7203,1.7174,1.7126,1.7116,1.7103,1.711,1.7004,1.7003,1.7002,1.7024,1.7024,1.7024,0,0,0,0,0,1.7468,1.7445,1.7436,1.7424,1.7353,1.7308,1.7298,1.7267,1.7266,1.7253,1.7221,1.7204,1.7112,1.7122,1.711,1.7096,1.7005,1.7003,1.7002,1.7024,1.7024,1.7024,0,0,0,0,0,0,1.7495,1.7438,1.7427,1.7388,1.7353,1.7302,1.7284,1.7268,1.7231,1.7231,1.7192,1.718,1.714,1.7114,1.7126,1.7059,1.7057,1.7053,1.7078,1.7078,1.7078,1.7084,1.7106,0,0,0,0,0,1.7496,1.7466,1.7417,1.7387,1.737,1.733,1.7309,1.7289,1.725,1.7235,1.7199,1.7161,1.7123,1.7099,1.7062,1.7021,1.7008,1.7005,1.7005,1.7005,1.7002,1.6977,1.6975,1.6997,1.6997,1.6997,0,0,1.7499,1.7464,1.7447,1.7392,1.7362,1.7329,1.7318,1.7284,1.7259,1.7229,1.7186,1.7159,1.7113,1.7071,1.705,1.7048,1.6993,1.7004,1.7004,1.7001,1.6975,1.6973,1.6972,1.6997,1.6997,1.6997,0,0,1.7486,1.7458,1.7429,1.74,1.7357,1.733,1.7323,1.7274,1.7255,1.7212,1.7189,1.7158,1.7094,1.7063,1.7038,1.7014,1.6997,1.7003,1.7002,1.6979,1.6977,1.6975,1.6965,1.6962,1.7,1.7,1.7,0,1.7494,1.7446,1.7416,1.7383,1.7359,1.7333,1.7302,1.7275,1.7221,1.7204,1.7202,1.7121,1.7089,1.7038,1.7033,1.7014,1.7004,1.7008,1.698,1.6978,1.6976,1.6966,1.6962,1.7001,1.7001,1.7001,1.7001,0,1.7457,1.7424,1.7406,1.7356,1.7329,1.7298,1.7262,1.7238,1.722,1.7194,1.7149,1.711,1.7064,1.705,1.7031,1.6996,1.6996,1.6988,1.6984,1.6975,1.6965,1.6961,1.7002,1.7002,1.7002,1.7002,0,0,1.7458,1.7393,1.7386,1.7363,1.7313,1.7286,1.7252,1.7209,1.7189,1.7153,1.7123,1.707,1.7062,1.7034,1.7011,1.6991,1.6973,1.6985,1.6983,1.6983,1.693,1.6936,1.6932,1.6962,1.6961,1.696,1.6933,0,1.7438,1.738,1.7352,1.7305,1.7273,1.7247,1.7218,1.7183,1.7157,1.7125,1.7095,1.7058,1.7051,1.7034,1.7012,1.698,1.6961,1.6981,1.6931,1.693,1.6943,1.6927,1.6933,1.6909,1.6929,1.6929,1.6928,0,1.7407,1.7372,1.7322,1.7276,1.7261,1.7236,1.7193,1.7163,1.7123,1.7105,1.7075,1.7053,1.7015,1.7016,1.6962,1.6977,1.6954,1.6935,1.6934,1.6926,1.6928,1.6918,1.6901,1.6897,1.6922,1.6923,1.6923,0,1.7411,1.7352,1.7314,1.7295,1.724,1.7222,1.7198,1.7158,1.7134,1.7096,1.708,1.7038,1.7014,1.6982,1.6948,1.6952,1.6898,1.6896,1.688,1.6881,1.6869,1.687,1.6847,1.6857,1.6857,1.6857,1.6857,0,1.7391,1.7361,1.7315,1.7292,1.7257,1.7225,1.7191,1.7165,1.7129,1.7099,1.7074,1.7046,1.7004,1.697,1.6944,1.6903,1.6893,1.6876,1.6869,1.6878,1.688,1.6862,1.6862,1.6856,1.6856,1.6857,1.6857,0,1.739,1.7358,1.7315,1.7267,1.7254,1.723,1.7188,1.7163,1.7137,1.7099,1.7088,1.7045,1.7004,1.6968,1.6913,1.6895,1.6852,1.6845,1.6867,1.6863,1.6849,1.685,1.6812,1.6805,1.6822,1.6822,1.6822,0,1.7379,1.7355,1.7305,1.7284,1.726,1.7226,1.7202,1.7168,1.7143,1.7095,1.7076,1.7033,1.6997,1.6932,1.6895,1.6853,1.6843,1.6833,1.6836,1.6845,1.6841,1.6842,1.6839,1.6832,1.6832,1.6832,1.6832,0,1.7361,1.7347,1.7313,1.7274,1.7245,1.7212,1.7178,1.7162,1.7122,1.7095,1.7053,1.7025,1.697,1.6927,1.6881,1.6854,1.6835,1.6832,1.6825,1.6833,1.6846,1.6837,1.6865,1.6832,1.6832,1.6832,1.6832,1.6832,1.7353,1.7331,1.7293,1.7255,1.7227,1.7196,1.717,1.7141,1.7106,1.7059,1.7041,1.6998,1.6957,1.6893,1.6866,1.6831,1.6828,1.682,1.6817,1.6815,1.6816,1.6853,1.6823,1.6823,1.6822,1.6822,1.6822,0,1.7334,1.7308,1.7274,1.7228,1.7199,1.7186,1.7148,1.7123,1.7087,1.7051,1.7016,1.6968,1.6926,1.6886,1.6842,1.6821,1.6812,1.6811,1.6811,1.6805,1.6822,1.6831,1.6819,1.6819,1.6819,1.6819,1.6819,1.6819,1.732,1.7282,1.7263,1.7209,1.7182,1.7142,1.712,1.7091,1.7062,1.701,1.6975,1.695,1.6912,1.6865,1.6826,1.6815,1.6799,1.68,1.6787,1.6803,1.6804,1.6804,1.6813,1.6797,1.6797,1.6772,1.6772,1.6772]},{"header":{"parameterUnit":"m.s-1","parameterCategory":1,"la1":30.2991,"la2":30.254,"lo1":-89.0895,"lo2":-89.0444,"dy":0.0017,"dx":0.0017,"nx":28,"ny":28,"refTime":"2025-01-01T09:00:00:Z","depth":0,"parameterNumber":3,"parameterNumberName":"V-component_of_WINDS"},"data":[0,0,0,0,0,0,0,0,0,0,0,0,0,0,0,0,0,0,0,0,0,0,0,0,0,0,0,0,0,0,0,0,0,0,0,0,0,0,0,0,0,0,0,0,0,0,0,0,0,0,0,0,0,0,0,0,0,0,-3.73,-3.73,0,-3.7358,-3.7359,-3.736,-3.7308,-3.7306,-3.7303,-3.7301,-3.7358,-3.7361,-3.7365,0,0,0,0,0,0,0,0,0,0,0,0,0,-3.7139,-3.7142,-3.73,-3.73,-3.7301,-3.7358,-3.7359,-3.736,-3.7308,-3.7306,-3.7303,-3.7301,-3.7357,-3.7361,-3.7365,0,0,0,0,0,0,0,0,0,0,0,0,0,-3.7204,-3.7143,-3.73,-3.7282,-3.7281,-3.7358,-3.7359,-3.736,-3.7309,-3.7305,-3.7302,-3.7299,-3.7355,-3.736,-3.7366,-3.7461,0,0,-3.7381,-3.7384,0,0,0,0,0,0,0,0,-3.72,-3.721,-3.7284,-3.7284,-3.7283,-3.7323,-3.7323,-3.7394,-3.7309,-3.7298,-3.7301,-3.7298,-3.7348,-3.7354,-3.7372,-3.7464,-3.7466,-3.7382,-3.7385,-3.7387,-3.7389,0,0,0,0,0,0,0,-3.7196,-3.7207,-3.7323,-3.7285,-3.7284,-3.727,-3.7276,-3.7336,-3.734,-3.7299,-3.7295,-3.7303,-3.7347,-3.7367,-3.7373,-3.7467,-3.7382,-3.7386,-3.739,-3.7392,-3.7639,-3.7643,0,0,0,0,0,0,-3.7194,-3.7204,-3.7321,-3.7325,-3.7233,-3.7276,-3.7282,-3.7313,-3.7339,-3.7341,-3.7306,-3.7301,-3.736,-3.7367,-3.7375,-3.7488,-3.7387,-3.7392,-3.7395,-3.7636,-3.764,-3.7644,0,0,0,0,0,0,-3.7191,-3.7205,-3.7319,-3.7263,-3.7277,-3.7282,-3.7317,-3.7316,-3.7335,-3.7345,-3.7345,-3.7325,-3.7357,-3.7367,-3.744,-3.7489,-3.7394,-3.7399,-3.7632,-3.7637,-3.7642,-3.7715,0,0,0,0,0,0,-3.7186,-3.7204,-3.7241,-3.7265,-3.728,-3.7385,-3.732,-3.7319,-3.7345,-3.7339,-3.7363,-3.7364,-3.7356,-3.7433,-3.7445,-3.7494,-3.7403,-3.7627,-3.7634,-3.764,-3.7709,-3.7723,-3.7734,0,0,0,0,0,-3.7181,-3.7259,-3.7244,-3.7258,-3.7327,-3.7388,-3.7396,-3.7386,-3.7349,-3.7386,-3.7392,-3.7363,-3.7482,-3.7441,-3.7454,-3.7506,-3.7624,-3.7632,-3.764,-3.7703,-3.772,-3.7734,0,0,0,0,0,0,-3.724,-3.7262,-3.7245,-3.7333,-3.7359,-3.7379,-3.7425,-3.7404,-3.744,-3.7433,-3.7417,-3.7423,-3.75,-3.751,-3.7464,-3.7599,-3.7547,-3.7558,-3.759,-3.7606,-3.7619,-3.7614,-3.7408,0,0,0,0,0,-3.7264,-3.7313,-3.7328,-3.7405,-3.7419,-3.742,-3.7446,-3.7436,-3.7461,-3.7472,-3.7483,-3.7508,-3.755,-3.7579,-3.7619,-3.771,-3.7714,-3.7752,-3.7765,-3.7775,-3.7785,-3.7833,-3.785,-3.7669,-3.7669,-3.7669,0,0,-3.7313,-3.7331,-3.7362,-3.7417,-3.7436,-3.7486,-3.7429,-3.7484,-3.752,-3.748,-3.7549,-3.7559,-3.7585,-3.7668,-3.7704,-3.7678,-3.7836,-3.7785,-3.7794,-3.7797,-3.7843,-3.786,-3.7875,-3.7675,-3.7674,-3.7673,0,0,-3.7427,-3.7446,-3.7512,-3.7532,-3.7562,-3.7562,-3.7578,-3.7601,-3.7605,-3.7675,-3.7646,-3.7688,-3.7762,-3.7782,-3.7802,-3.7924,-3.7898,-3.7937,-3.8004,-3.8051,-3.8065,-3.8078,-3.8121,-3.8136,-3.7946,-3.7947,-3.7947,0,-3.7484,-3.7559,-3.7548,-3.7605,-3.763,-3.7596,-3.7662,-3.7681,-3.7722,-3.7739,-3.771,-3.7802,-3.7817,-3.7904,-3.7934,-3.7951,-3.7968,-3.7934,-3.8064,-3.8077,-3.8088,-3.8129,-3.8145,-3.7951,-3.7951,-3.795,-3.795,0,-3.7627,-3.7679,-3.7728,-3.777,-3.78,-3.7861,-3.7858,-3.7889,-3.7877,-3.788,-3.7951,-3.7968,-3.8011,-3.803,-3.8018,-3.8115,-3.8098,-3.8067,-3.8014,-3.811,-3.8148,-3.8164,-3.7958,-3.7956,-3.7955,-3.7953,0,0,-3.778,-3.7815,-3.7833,-3.7852,-3.7882,-3.7921,-3.798,-3.8023,-3.805,-3.8079,-3.8127,-3.8191,-3.8162,-3.8185,-3.8174,-3.8216,-3.831,-3.8179,-3.818,-3.8203,-3.8417,-3.844,-3.8459,-3.8294,-3.8297,-3.8299,-3.8415,0,-3.7896,-3.8,-3.7991,-3.8089,-3.8137,-3.8106,-3.8157,-3.818,-3.8184,-3.8224,-3.8228,-3.8273,-3.8232,-3.8245,-3.8285,-3.8291,-3.8353,-3.8282,-3.8337,-3.834,-3.8332,-3.8478,-3.8503,-3.8611,-3.8429,-3.8432,-3.8434,0,-3.8044,-3.808,-3.8183,-3.8206,-3.8225,-3.8272,-3.831,-3.8349,-3.8374,-3.8374,-3.8399,-3.8382,-3.8439,-3.8386,-3.8464,-3.8416,-3.8438,-3.8444,-3.8448,-3.8453,-3.8392,-3.8486,-3.8646,-3.8662,-3.8457,-3.8455,-3.8454,0,-3.8145,-3.8219,-3.829,-3.8306,-3.8335,-3.8368,-3.8381,-3.8403,-3.8429,-3.8462,-3.8479,-3.8518,-3.8539,-3.8569,-3.8562,-3.8523,-3.8642,-3.8588,-3.8643,-3.8643,-3.8669,-3.8667,-3.8834,-3.8684,-3.8684,-3.8683,-3.8683,0,-3.8275,-3.8339,-3.8336,-3.838,-3.845,-3.8439,-3.8509,-3.8517,-3.8537,-3.8581,-3.8556,-3.8597,-3.8585,-3.8626,-3.862,-3.8686,-3.8696,-3.8696,-3.8694,-3.8699,-3.8699,-3.8713,-3.8705,-3.8688,-3.8687,-3.8686,-3.8685,0,-3.84,-3.8401,-3.8476,-3.8497,-3.8503,-3.8554,-3.8571,-3.8612,-3.8614,-3.867,-3.8682,-3.8685,-3.8731,-3.8727,-3.8779,-3.8775,-3.8856,-3.8845,-3.8848,-3.8846,-3.8901,-3.8896,-3.9082,-3.9105,-3.8941,-3.8942,-3.8944,0,-3.8483,-3.8532,-3.8558,-3.8586,-3.8602,-3.8647,-3.8674,-3.8665,-3.8693,-3.8726,-3.8762,-3.8806,-3.8841,-3.8916,-3.8922,-3.8961,-3.895,-3.9013,-3.8956,-3.8959,-3.895,-3.8948,-3.8952,-3.9024,-3.9026,-3.9027,-3.9028,0,-3.8629,-3.8627,-3.8667,-3.8708,-3.8741,-3.8772,-3.88,-3.8824,-3.8818,-3.8851,-3.8898,-3.8926,-3.8979,-3.9022,-3.9059,-3.9071,-3.9049,-3.9046,-3.9061,-3.9066,-3.9066,-3.9066,-3.8878,-3.9042,-3.9041,-3.904,-3.9039,-3.9038,-3.8735,-3.8777,-3.8802,-3.8848,-3.8868,-3.8895,-3.8934,-3.8942,-3.8982,-3.9025,-3.9016,-3.907,-3.9092,-3.914,-3.9156,-3.9196,-3.9173,-3.9195,-3.92,-3.9206,-3.9212,-3.906,-3.9203,-3.9202,-3.9202,-3.9202,-3.9201,0,-3.888,-3.8895,-3.8937,-3.8978,-3.9013,-3.899,-3.902,-3.9051,-3.9099,-3.9123,-3.9158,-3.9212,-3.9254,-3.9263,-3.9303,-3.9334,-3.9325,-3.9345,-3.9342,-3.9345,-3.923,-3.9213,-3.9352,-3.9352,-3.9352,-3.9352,-3.9352,-3.9351,-3.896,-3.9029,-3.903,-3.9108,-3.9122,-3.9175,-3.9194,-3.9218,-3.9237,-3.93,-3.9335,-3.9341,-3.9359,-3.94,-3.9437,-3.9438,-3.9454,-3.9478,-3.9476,-3.9368,-3.9353,-3.9339,-3.9323,-3.9482,-3.9482,-3.9587,-3.9588,-3.9589]}]]